Miscellaneous Local Product
Issued by NWS North Platte, NE

Home | Current Version | Previous Version | Text Only | Print | Product List | Glossary On
Versions: 1 2 3 4 5 6 7 8 9 10 11 12 13 14 15 16 17 18 19 20 21 22 23 24 25 26 27 28 29 30 31 32 33 34 35 36 37 38 39 40 41 42 43 44 45 46 47 48 49 50
564
AXUS43 KLBF 020010
MISLBF


WESTERN AND NORTH CENTRAL NEBRASKA HOURLY WEATHER ROUNDUP
NATIONAL WEATHER SERVICE NORTH PLATTE NE
700 PM CDT SUN MAY 01 2016

NOTE: "FAIR" INDICATES FEW OR NO CLOUDS BELOW 12,000 FEET WITH NO
SIGNIFICANT WEATHER AND/OR OBSTRUCTIONS TO VISIBILITY.

NOTE: STATIONS NOT REPORTING VARIABLES SUCH AS SKY/WEATHER OR
PRESSURE ARE PROVIDED BY RAWS AND APRS NETWORKS AND ARE NOT UNDER
NATIONAL WEATHER SERVICE QUALITY CONTROL.

...OBSERVATIONS IN AND NEAR THE EASTERN PANHANDLE OF NEBRASKA...

CITY           SKY/WX    TMP DP  RH WIND       PRES   REMARKS
PINE RIDGE     SUNNY     55  28  35 N13       30.21R
CHADRON        SUNNY     56  29  35 NE10      30.22R
ALLIANCE       MOSUNNY   44  34  67 SW5       30.21S
SIDNEY         SUNNY     46  28  49 NE8       30.25R
BIG SPRINGS      N/A     50  35  57 N10         N/A
$$

...OBSERVATIONS IN NORTHERN NEBRASKA AND FAR SOUTHERN SOUTH DAKOTA...

CITY           SKY/WX    TMP DP  RH WIND       PRES   REMARKS
WINNER         FAIR      58  32  37 N13       30.18F
VALENTINE      SUNNY     55  30  38 N12       30.19S
THEDFORD       PTSUNNY   55  33  44 N12G21    30.20R
AINSWORTH      MOSUNNY   54  33  44 N9G23     30.18R
O`NEILL        SUNNY     55  33  44 N14G22    30.16F
ORD            PTSUNNY   52  37  56 NE14      30.16R
BROKEN BOW     PTSUNNY   54  34  46 N10       30.16S
VALENTINE NWR    N/A     53  32  44 N12G23      N/A
BUTTE            N/A     53  36  52 N12G21      N/A
HALSEY           N/A     55  30  38 N9G18       N/A
CHAMBERS         N/A     61  39  44 MISG        N/A
EWING            N/A     53  42  65 N5G12       N/A
$$

...OBSERVATIONS IN SOUTHWEST NEBRASKA AND FAR NORTHEAST COLORADO...

CITY           SKY/WX    TMP DP  RH WIND       PRES   REMARKS
HOLYOKE        CLOUDY    46  32  57 N12G17    30.26R
IMPERIAL       PTSUNNY   49  31  49 N12       30.23R
OGALLALA       SUNNY     51  30  44 N14       30.23R
NORTH PLATTE   CLOUDY    53  32  44 N12       30.19R
MCCOOK         CLOUDY    52  37  56 NE6       30.19S
LEXINGTON      MOSUNNY   52  39  61 N8        30.18S
PAXTON           N/A     50  35  56 N12         N/A
STAPLETON        N/A     52  35  52 CALM        N/A
GOTHENBURG       N/A     53  31  42 N8          N/A
CALLAWAY         N/A     52  35  52 NE12        N/A
$$

...OBSERVATIONS IN CENTRAL LINCOLN COUNTY AREA...

CITY           SKY/WX    TMP DP  RH WIND       PRES   REMARKS
N.P. AIRPORT   CLOUDY    53  32  44 N12       30.19R
N.P. DOWNTOWN    N/A     52  35  52 N6          N/A
N.P. HILLCREST   N/A     51  34  52 NE12G18     N/A
$$

...SOME OBSERVATIONS FROM AROUND THE REGION...

CITY           SKY/WX    TMP DP  RH WIND       PRES   REMARKS
DENVER         CLOUDY    41  28  60 NW5       30.27S
LARAMIE        CLOUDY    33  21  61 CALM      30.24S
CHEYENNE       MOSUNNY   38  22  52 MISG      30.26S
SCOTTSBLUFF    MOSUNNY   53  30  41 NE8       30.24S
RAPID CITY     SUNNY     57  29  34 N9        30.21F
BISMARCK       SUNNY     64  29  26 VRB7      30.19F
PIERRE         SUNNY     58  36  43 W13       30.18F
SIOUX FALLS    MOSUNNY   55  37  50 N7        30.13F
OMAHA          CLOUDY    50  43  77 NE3       30.12R
GRAND ISLAND   CLOUDY    48  40  73 N9        30.18R
KANSAS CITY    CLOUDY    52  45  77 NW8       30.07R
WICHITA        CLOUDY    53  41  63 N15G24    30.09F
OKLAHOMA CITY  CLOUDY    58  44  60 N20       30.08R
DALLAS         MOSUNNY   72  49  44 N14       29.96R
AMARILLO       CLOUDY    44  36  73 N16       30.20R
DODGE CITY     CLOUDY    45  38  76 N13       30.17S
HAYS           CLOUDY    48  34  57 N13       30.17F
GOODLAND       PTSUNNY   51  31  46 N20G25    30.21R
$$




USA.gov is the U.S. government's official web portal to all federal, state and local government web resources and services.